User: anonymous   Login
Location: Unspecified
(0.0000°N, 0.0000°E)
Time: 21:47:09
(UTC+00:00)
Language:

STRAND 1 - Orbit

View from above orbital plane
View from above orbital plane
View from above satellite
View from above satellite

Ground track
Ground track

The orbit data is extracted from the following two-line orbital elements,

1 39090U 13009E   18048.80955011 +.00000029 +00000-0 +25588-4 0  9997
2 39090 098.5323 256.6625 0008201 295.1427 064.8908 14.35011330260684
Epoch (UTC): 17 February 2018 19:25:45
Eccentricity: 0.0008201
inclination: 98.5323°
perigee height: 769 km
apogee height: 781 km
right ascension of ascending node: 256.6625°
argument of perigee: 295.1427°
revolutions per day: 14.35011330
mean anomaly at epoch: 64.8908°
orbit number at epoch: 26068

The dashed part of the orbit path shows where the satellite is in the earth's shadow,  

DLR